Regional Weather Roundup
Issued by NWS Wakefield, VA

Home | Current Version | Previous Version | Graphics & Text | Print | Product List | Glossary On
Versions: 1 2 3 4 5 6 7 8 9 10 11 12 13 14 15 16 17 18 19 20 21 22 23 24 25 26 27 28 29 30 31 32 33 34 35 36 37 38 39 40 41 42 43 44 45 46 47 48 49 50
000
ASUS41 KAKQ 030910
RWRAKQ

REGIONAL WEATHER ROUNDUP
NATIONAL WEATHER SERVICE WAKEFIELD VA
400 AM EST TUE MAR 03 2015

Note: "fair" indicates few or no clouds below 12,000 feet with no
significant weather and/or obstructions to visibility. * = Denotes
station may not report precipitation (e.g., rain,snow,etc.),
thunder or fog.

VAZ042-051-052>054-056-031000-
NORTHERN VIRGINIA

CITY           SKY/WX    TMP DP  RH WIND       PRES   REMARKS
WASH NATIONAL  CLOUDY    31  17  56 N7        30.42R
DULLES         CLOUDY    26  15  63 NE5       30.40F
FORT BELVOIR   MOCLDY    29  14  55 CALM      30.43R
QUANTICO       MOCLDY    29  17  61 CALM      30.44R
FREDERICKSBRG* MOCLDY    29  22  75 CALM      30.40S
STAFFORD*      MOCLDY    25  17  72 NE5       30.45S
WARRENTON      MOCLDY    28  22  75 E5        30.39S
CULPEPER*      MOCLDY    27  19  74 CALM      30.39F
MANASSAS*      MOCLDY    25  21  86 CALM      30.41S
LEESBURG*      MOCLDY    28  19  69 NE5       30.39F
WINCHESTER     MOCLDY    28  14  54 CALM      30.34F
FRONT ROYAL*   FAIR      27  16  63 CALM      30.35F
LURAY*         FAIR      30  21  69 CALM      30.35R
$$

VAZ048-049-060>072-079>083-031000-
CENTRAL AND SOUTH CENTRAL VIRGINIA

CITY           SKY/WX    TMP DP  RH WIND       PRES   REMARKS
RICHMOND       CLOUDY    32  16  51 CALM      30.41R
CHESTERFIELD*  FAIR      28  10  47 CALM      30.42R
PETERSBURG*    MOCLDY    29  24  84 CALM      30.41S
HANOVER        MOCLDY    28  19  69 CALM      30.41R
TAPPAHANNOCK*  MOCLDY    29  17  59 N3        30.40S
QUINTON*       FAIR      30  17  59 CALM      30.41R
CHARLOTTSVILLE CLOUDY    30  16  56 E3        30.37S
GORDONSVILLE*  FAIR      26  20  79 CALM      30.38S
ORANGE*        MOCLDY    28  23  80 CALM      30.40S
LOUISA*        MOCLDY    28  19  69 CALM      30.37S
BUMPASS*       FAIR      27  20  73 CALM      30.38S
FARMVILLE*     CLOUDY    34  19  55 N3        30.37R
CREWE*         PTSUNNY   33  16  51 CALM      30.38S
FORT PICKETT*  CLOUDY    31  20  62 E6        30.38R
CHASE CITY*    CLOUDY    37  26  64 E5        30.36R
CLARKSVILLE*   CLOUDY    36  25  64 E7        30.35S
SOUTH HILL*    MOCLDY    30  26  83 CALM      30.43R
LAWRENCEVILLE* PTSUNNY   31  25  77 CALM      30.37S
EMPORIA*       PTCLDY    28  27  93 CALM      30.41R
$$

VAZ088>098-031000-
SOUTHEAST VIRGINIA

CITY           SKY/WX    TMP DP  RH WIND       PRES   REMARKS
NORFOLK        MOCLDY    33  20  58 NE12      30.39R WCI  24
VIRGINIA BEACH MOCLDY    32  21  64 NE6       30.40R
NORFOLK NAVAL  MOCLDY    35  22  58 NE12      30.41R
WEST POINT*    MOCLDY    29  20  71 CALM      30.42R
SALUDA*        FAIR      30  19  64 N3        30.39S
NEWPORT NEWS   MOCLDY    33  21  61 NE7       30.40R
LANGLEY AFB    MOCLDY    31  22  69 NE9       30.39R
FORT EUSTIS    MOCLDY    30  21  69 SE3       30.38R
WILLIAMSBURG*  MOCLDY    30  25  80 CALM      30.40S
HR EXEC AP*    FAIR      32  18  55 NE7       30.42R
FRANKLIN*      PTCLDY    26  25  95 CALM      30.41R
WAKEFIELD      PTCLDY    27  24  89 CALM      30.40R
$$

VAZ020-022-025-037-045-031000-
WEST CENTRAL AND SOUTHWEST VIRGINIA

CITY           SKY/WX    TMP DP  RH WIND       PRES   REMARKS
STAUNTON*      CLOUDY    28  18  66 CALM      30.35S
WAYNESBORO*    CLOUDY    29  18  62 CALM      30.31F
HOT SPRINGS VA MOCLDY    26  13  57 SE10      30.17R WCI  17
LYNCHBURG      CLOUDY    33  17  51 E5        30.36R
DANVILLE       CLOUDY    39  25  57 E9        30.35R
SOUTH BOSTON*  CLOUDY    37  21  53 CALM      30.36R
MARTINSVILLE   CLOUDY    37  29  72 N3        30.36R
ROANOKE        CLOUDY    34  18  52 SE5       30.35S
BLACKSBURG     CLOUDY    30  18  60 E5        30.29S
DUBLIN*        MOCLDY    30  24  77 CALM      30.28S
MARION*        CLOUDY    32  21  64 E7        30.25R
HILLSVILLE*    CLOUDY    35  19  52 S3        30.23S
RICHLANDS*     FAIR      40  24  53 SE7       30.13F
WISE*          CLOUDY    36  25  64 S7        30.15S
ABINGDON*      CLOUDY    38  25  59 E5        30.18R
$$

MDZ021>025-VAZ099-100-031000-
SOUTHERN MARYLAND AND THE DELMARVA PENINSULA

CITY           SKY/WX    TMP DP  RH WIND       PRES   REMARKS
PATUXENT RIVER MOCLDY    29  18  63 N6        30.42S
BAY BRIDGE APT   N/A     28  21  74 CALM      30.42R
LEONARDTOWN    MOCLDY    28  19  69 CALM      30.43R
DOVER          MOCLDY    25  18  72 N5        30.41R
GEORGETOWN     MOCLDY    26  17  68 CALM      30.41R
EASTON         MOCLDY    29  20  67 N3        30.45R
CAMBRIDGE      MOCLDY    32  18  55 N3        30.41R
SALISBURY      MOCLDY    30  17  58 N6        30.41R
OCEAN CITY     MOCLDY    27  17  66 NW6       30.41R
WALLOPS ISLAND PTCLDY    28  16  60 N6        30.41S
ACCOMACK*      PTCLDY    30  16  55 N6        30.39F
$$

NCZ012>017-030>032-031000-
NORTH CENTRAL AND EASTERN NORTH CAROLINA

CITY           SKY/WX    TMP DP  RH WIND       PRES   REMARKS
ROANOKE RAPIDS FAIR      30  27  86 CALM      30.38S
RALEIGH        MOCLDY    40  26  57 E8        30.35F
ELIZABETH CITY PTCLDY    34  21  59 N10       30.39F
AHOSKIE*       PTCLDY    31  20  63 CALM      30.40R
EDENTON*       PTCLDY    34  23  64 NE3       30.38S
CURRITUCK*     PTCLDY    35  20  55 NE10      30.39S
KILL DEVIL HLS PTCLDY    36  28  73 N6        30.36S
MANTEO         PTCLDY    36  27  69 N6        30.38S
CAPE HATTERAS  CLEAR     39  30  70 NE8       30.36R
TARBORO*       FAIR      32  32  99 CALM      30.39F FOG
GOLDSBORO      CLOUDY    38  36  91 E7        30.34F
WASHINGTON     PTCLDY    31  28  88 CALM      30.39R
GREENVILLE     MOCLDY    34  32  93 CALM      30.38S
NEW BERN       MOCLDY    38  26  62 NE7       30.38S
WILMINGTON     CLOUDY    43  27  53 E10       30.33F
$$

VAZ048-031000-
ELSEWHERE

CITY           SKY/WX    TMP DP  RH WIND       PRES   REMARKS
HARRISBURG PA  MOCLDY    23   9  55 NE5       30.39F
BALTIMORE      CLOUDY    25  15  66 CALM      30.42R
ANNAPOLIS      MOCLDY    29  16  58 NW5       30.42R
ANDREWS AFB    MOCLDY    26  17  68 N5        30.40R
PHILADELPHIA   PTCLDY    26  10  50 N12       30.43S WCI  16
HENDERSON NC   CLOUDY    36  24  59 E3        30.36R
GREENSBORO     CLOUDY    40  21  46 E6        30.29F
ROCKY MOUNT    MOCLDY    37  25  61 E3        30.37F
$$

VAZ100-031000-
MARINE

STATION/POSITION TIME  TEMP    WIND        PRES    WAVE   SWELL
                       AIR SEA DIR/SP/G            HT/PER HT/PER
                 (UTC) (F)     (DEG/KT/KT) (MB)    (FT/S) (FT/S)
BRANDYWINE LGT   0900   30     350/ 15/ 17 1029.4R
CAPE MAY NJ      0900   30     360/  1/  8 1029.2R
LEWES DE         0900   30     340/  7/  9 1029.4R
15NM E FENWICK I 0900   32 35              1028.7R   3/ 4
OCEAN-CITY-INLET 0900   30     350/  5/  7 1029.1R
WACHAPREAGUE VA  0900   30      20/  5/  8 1029.1F
THOMAS POINT MD  0900   30 32  340/  8/  9 1031.2R
COVE POINT MD    0900   30      10/  9/ 11 1029.7R
SOLOMONS ISLAND  0800      33                N/A
BISHOPS HEAD MD  0900   29     350/  3/  5 1029.3R
CAMBRIDGE MD     0900   29     350/  3/  5 1029.6S
LEWISETTA VA     0900           30/  2/  7 1029.5R
RAPPAHANNOCK LGT 0900           20/ 18/ 19 1029.2F
STINGRAY PT      0900   32      40/ 16/ 19   N/A
YORK RVR RNG VA  0900   33      40/ 14/ 16 1028.5R
YORKTOWN VA      0900   32      40/  6/  7 1029.2R
DOMINION TERM VA 0900   33      30/  5/  9 1029.2F
KIPTOPEKE VA     0900           40/  5/  9   N/A
CHES BAY BRIDGE  0900   33      20/  7/  8 1028.8R
CAPE HENRY VA    0900   33      30/  6/  7 1027.8R
CHESAPEAKE LGHT  0800   34      30/ 12/ 14 1029.7F
WILLOUBY STN VA  0900           40/ 11/ 12 1029.9R
S CRANEY ISL VA  0900           30/ 10/ 12 1029.2S
CAPE HENRY BUOY  0900      35                N/A     3/ 5
1ST LANDING BUOY 0900   33      40/  8/ 12 1028.5R
OFFSHORE WE BUOY 0900      36                N/A     4/ 5   3/ 5
64NM E OF VA BCH 0900   42 59   20/ 16/ 19 1027.7F   5/ 7   2/ 9
DUCK PIER NC     0900   36      20/ 13/ 14 1027.5R
44100 DUCK FRF   0900      37                N/A     5/ 6
44056 DUCK FRF   0900      34                N/A     4/ 5
OREGON INLET NC  0900   36     360/  7/ 10 1028.0F
HATTERAS NC      0900   40      20/ 13/ 16 1028.0R
CAPE LOOKOUT NC  0800   45      30/ 17/ 22 1027.3F
$$


USA.gov is the U.S. government's official web portal to all federal, state and local government web resources and services.